SCP
0 -0 -0 -0 0 0 0 0 0 0 0 0 0 0 0 0 0 0 0 0 0 0 0 0 1 0 1
0 0 0 0 0 0 0 0 0 0 0 0 0 0 0 0 0 0 0 0 0 0 0 1 0 0 0
0 0 0 0 0 0 0 0 0 0 0 0 0 0 0 0 0 0 0 0 0 0 0 0 0 1 0
0 0 0 0 0 0 0 0 0 0 0 0 0 0 0 0 0 0 0 0 0 0 0 0 1 1 0
-0 -0 -0 0 0 0 0 0 0 0 0 0 0 0 0 0 0 0 0 1 0 0 0 1 1 0 0
-0 -0 -0 0 0 0 0 0 0 0 0 0 0 0 0 0 0 0 0 0 0 0 0 0 0 0 0
-0 -0 0 0 0 0 0 0 0 0 0 0 0 0 0 0 0 0 0 0 0 0 0 0 0 0 0
-0 -0 -0 0 0 0 0 0 0 0 0 0 0 0 0 -0 0 0 0 0 0 0 0 0 0 0 0
-0 -0 -0 0 0 0 0 0 0 0 0 0 0 -0 0 -0 -0 0 0 0 0 0 0 0 0 0 0
-0 -0 -0 0 0 0 0 0 0 0 0 0 0 0 0 0 -0 -0 0 0 0 0 0 0 0 0 0
0 0 0 0 0 0 0 0 0 0 0 0 0 0 0 0 0 -0 -0 0 0 0 0 0 0 0 0
0 0 0 0 0 0 0 0 0 0 0 0 0 0 0 0 0 0 -0 0 0 0 0 0 0 0 0
0 0 0 0 0 0 0 0 0 0 0 0 0 0 0 0 0 0 -0 -0 -0 0 0 0 0 0 0
0 0 0 0 0 0 0 0 0 0 0 0 0 0 0 0 0 0 0 -0 -0 -0 0 0 0 0 0
0 0 0 0 0 0 0 0 0 0 0 0 0 0 0 0 0 0 0 -0 -0 -0 0 0 0 0 0
0 0 0 0 0 0 0 0 0 0 0 0 0 0 0 0 0 0 0 0 -0 -0 -0 0 0 0 0
Wind_Speed_500mb
40 41 39 30 30 36 40 42 45 46 47 51 53 55 55 55 54 55 54 51 49 49 48 51 55 51 59
41 42 42 42 40 36 37 43 43 48 50 49 52 59 60 61 59 58 58 58 54 52 49 52 59 57 61
46 48 47 44 42 42 39 37 48 50 48 52 54 53 68 67 65 63 62 60 59 57 57 55 59 65 65
56 56 53 47 42 40 42 43 40 43 56 57 55 56 59 62 67 65 68 66 65 66 64 61 65 73 71
61 59 57 55 53 48 42 44 50 52 51 50 52 61 63 62 69 75 76 75 75 75 74 70 72 79 79
58 59 57 57 56 58 58 54 52 56 59 56 53 52 54 70 70 76 86 86 81 79 80 79 80 83 87
56 58 61 58 56 57 59 62 64 62 63 68 65 65 62 54 62 78 81 92 91 85 85 84 85 85 91
58 61 62 62 63 59 54 60 66 72 74 68 71 72 73 70 56 56 85 85 98 91 91 89 87 89 93
61 63 64 66 67 68 66 72 80 81 83 75 75 79 74 76 84 71 51 89 91 103 99 96 90 91 95
64 66 68 68 69 72 77 88 90 93 91 80 77 84 78 75 84 86 74 56 93 99 103 102 94 93 91
65 66 68 71 77 81 87 91 94 93 88 81 83 84 83 86 79 86 84 74 63 94 103 100 97 97 97
66 70 74 80 85 91 96 97 98 100 89 80 86 88 93 83 85 83 87 88 74 50 94 97 101 96 98
67 75 81 88 93 97 100 103 102 98 89 76 71 74 78 77 83 84 85 79 99 80 63 96 99 101 103
65 71 78 88 96 102 108 110 110 108 103 95 86 87 84 86 87 83 76 85 91 100 75 63 65 76 101
66 74 81 88 97 107 112 116 117 111 105 97 84 84 82 81 81 79 73 76 71 108 97 51 38 38 77
66 74 82 92 104 105 114 118 122 116 102 89 79 59 69 73 83 81 71 77 79 80 100 102 74 53 79
Wind_Direction_500mb
21 16 11 348 315 295 287 278 277 274 278 278 277 277 275 272 272 269 264 261 259 256 251 246 240 237 234
4 359 355 350 349 343 308 290 285 277 274 276 281 275 272 273 270 268 265 261 258 256 254 250 241 238 234
356 350 342 336 329 328 326 323 291 286 282 280 278 283 276 269 264 267 266 262 258 257 255 250 242 238 232
353 348 345 340 331 323 317 317 311 301 286 283 280 278 274 273 265 264 265 263 260 257 256 252 243 239 234
354 351 347 345 341 336 325 317 313 309 304 299 292 284 281 273 266 264 262 260 260 258 256 253 248 239 235
349 346 348 347 346 343 341 333 322 315 308 300 297 289 293 286 277 268 261 261 261 261 257 253 249 244 235
348 347 348 349 345 341 338 336 332 322 313 308 299 290 281 294 299 279 271 259 258 259 257 253 248 245 238
347 348 348 346 343 338 332 332 329 325 319 311 303 299 291 280 286 296 278 270 254 257 257 253 248 243 239
349 348 346 345 342 341 335 332 330 326 322 311 306 305 296 286 281 279 299 271 264 254 256 253 247 242 238
345 344 342 341 339 336 334 333 330 326 322 314 306 304 304 298 286 281 278 289 261 260 252 250 247 241 235
343 339 337 336 336 336 334 332 329 325 320 312 308 305 301 303 293 294 280 277 276 257 250 247 243 240 232
341 340 339 338 335 335 333 332 329 325 321 305 299 298 296 297 297 294 297 274 274 272 248 236 242 238 235
344 342 339 336 334 332 331 331 330 325 316 303 294 292 291 292 292 294 296 297 273 262 306 237 229 232 228
342 339 336 333 331 331 332 331 330 327 320 314 286 281 287 288 290 286 292 298 281 268 273 258 209 210 220
338 335 332 329 329 330 330 330 331 327 321 314 304 281 277 282 283 279 285 289 288 266 263 283 218 212 200
336 334 332 332 328 330 329 330 330 327 321 317 312 296 280 279 278 272 279 283 291 277 273 261 294 247 190
Wind_Speed_850mb
40 41 39 30 30 36 40 42 45 46 47 51 53 55 55 55 54 55 54 51 49 49 48 51 55 51 59
41 42 42 42 40 36 37 43 43 48 50 49 52 59 60 61 59 58 58 58 54 52 49 52 59 57 61
46 48 47 44 42 42 39 37 48 50 48 52 54 53 68 67 65 63 62 60 59 57 57 55 59 65 65
56 56 53 47 42 40 42 43 40 43 56 57 55 56 59 62 67 65 68 66 65 66 64 61 65 73 71
61 59 57 55 53 48 42 44 50 52 51 50 52 61 63 62 69 75 76 75 75 75 74 70 72 79 79
58 59 57 57 56 58 58 54 52 56 59 56 53 52 54 70 70 76 86 86 81 79 80 79 80 83 87
56 58 61 58 56 57 59 62 64 62 63 68 65 65 62 54 62 78 81 92 91 85 85 84 85 85 91
58 61 62 62 63 59 54 60 66 72 74 68 71 72 73 70 56 56 85 85 98 91 91 89 87 89 93
61 63 64 66 67 68 66 72 80 81 83 75 75 79 74 76 84 71 51 89 91 103 99 96 90 91 95
64 66 68 68 69 72 77 88 90 93 91 80 77 84 78 75 84 86 74 56 93 99 103 102 94 93 91
65 66 68 71 77 81 87 91 94 93 88 81 83 84 83 86 79 86 84 74 63 94 103 100 97 97 97
66 70 74 80 85 91 96 97 98 100 89 80 86 88 93 83 85 83 87 88 74 50 94 97 101 96 98
67 75 81 88 93 97 100 103 102 98 89 76 71 74 78 77 83 84 85 79 99 80 63 96 99 101 103
65 71 78 88 96 102 108 110 110 108 103 95 86 87 84 86 87 83 76 85 91 100 75 63 65 76 101
66 74 81 88 97 107 112 116 117 111 105 97 84 84 82 81 81 79 73 76 71 108 97 51 38 38 77
66 74 82 92 104 105 114 118 122 116 102 89 79 59 69 73 83 81 71 77 79 80 100 102 74 53 79
Wind_Direction_850mb
21 16 11 348 315 295 287 278 277 274 278 278 277 277 275 272 272 269 264 261 259 256 251 246 240 237 234
4 359 355 350 349 343 308 290 285 277 274 276 281 275 272 273 270 268 265 261 258 256 254 250 241 238 234
356 350 342 336 329 328 326 323 291 286 282 280 278 283 276 269 264 267 266 262 258 257 255 250 242 238 232
353 348 345 340 331 323 317 317 311 301 286 283 280 278 274 273 265 264 265 263 260 257 256 252 243 239 234
354 351 347 345 341 336 325 317 313 309 304 299 292 284 281 273 266 264 262 260 260 258 256 253 248 239 235
349 346 348 347 346 343 341 333 322 315 308 300 297 289 293 286 277 268 261 261 261 261 257 253 249 244 235
348 347 348 349 345 341 338 336 332 322 313 308 299 290 281 294 299 279 271 259 258 259 257 253 248 245 238
347 348 348 346 343 338 332 332 329 325 319 311 303 299 291 280 286 296 278 270 254 257 257 253 248 243 239
349 348 346 345 342 341 335 332 330 326 322 311 306 305 296 286 281 279 299 271 264 254 256 253 247 242 238
345 344 342 341 339 336 334 333 330 326 322 314 306 304 304 298 286 281 278 289 261 260 252 250 247 241 235
343 339 337 336 336 336 334 332 329 325 320 312 308 305 301 303 293 294 280 277 276 257 250 247 243 240 232
341 340 339 338 335 335 333 332 329 325 321 305 299 298 296 297 297 294 297 274 274 272 248 236 242 238 235
344 342 339 336 334 332 331 331 330 325 316 303 294 292 291 292 292 294 296 297 273 262 306 237 229 232 228
342 339 336 333 331 331 332 331 330 327 320 314 286 281 287 288 290 286 292 298 281 268 273 258 209 210 220
338 335 332 329 329 330 330 330 331 327 321 314 304 281 277 282 283 279 285 289 288 266 263 283 218 212 200
336 334 332 332 328 330 329 330 330 327 321 317 312 296 280 279 278 272 279 283 291 277 273 261 294 247 190